Location: Unspecified
(48.7670°N, 0.0000°E)
Time: 03:04:26
(UTC+00:00)

Courier 1B - Pass Details

Date: 19 June 2019
Orbit: 963 x 1209 km, 28.3° (Epoch: 21 July)

Event Time Altitude Azimuth Distance (km) Brightness Sun altitude
Rises 19:16:47 0° 210° (SSW) 3,933 10.7 5.9°
Reaches altitude 10° 19:22:23 10° 176° (S) 3,043 9.8 5.1°
Maximum altitude 19:24:04 11° 163° (SSE) 2,999 9.6 4.9°
Drops below altitude 10° 19:25:46 10° 150° (SSE) 3,078 9.6 4.7°
Sets 19:31:34 0° 116° (ESE) 4,086 10.0 3.8°
